Tracking 29932 objects as of 3-Dec-2024
HD Live streaming from Space Station
objects crossing your sky now

STARLINK-30261

Track STARLINK-30261 now!
10-day predictions
STARLINK-30261 is classified as:


NORAD ID: 57523
Int'l Code: 2023-115C
Perigee: 565.3 km
Apogee: 567.2 km
Inclination: 43.0 °
Period: 95.8 minutes
Semi major axis: 6937 km
RCS: Unknown
Launch date: August 8, 2023
Source: United States (US)
Launch site: AIR FORCE WESTERN TEST RANGE (AFWTR)
Your satellite tracking list
Your tracking list is empty




NASA's NSSDC Master Catalog

Two Line Element Set (TLE):
1 57523U 23115C   24338.34497273  .00000428  00000-0  46784-4 0  9990
2 57523  43.0056 351.7650 0001372 257.1888 102.8801 15.02535561 72913
Source of the keplerian elements: AFSPC